Location: Dalton
(34.7700°N, 84.9700°W)
Time: 13:48:39
(UTC-04:00)

N. Korean satellite - Pass Details

Date: 12 October 2017
Orbit: 459 x 517 km, 97.2° (Epoch: 21 October)

Event Time Altitude Azimuth Distance (km) Brightness Sun altitude
Rises 20:07:57 0° 182° (S) 2,565 10.3 -13.0°
Reaches altitude 10° 20:10:07 10° 189° (S) 1,677 9.4 -13.4°
Maximum altitude 20:13:33 42° 261° (W) 704 7.9 -14.1°
Drops below altitude 10° 20:16:57 10° 333° (NNW) 1,657 9.6 -14.8°
Sets 20:19:04 0° 341° (NNW) 2,530 10.5 -15.3°
